Hourly Data Report for February 21, 2017

All times are specified in Local Standard Time (LST). Add 1 hour to adjust for Daylight Saving Time where and when it is observed.

TORONTO CITY
ONTARIO

43°40'00.000" N
79°24'00.000" W
112.50 m
6158355
71508
XTO

Download Data

Hourly Data (February 2017)
Hourly Data Report for February 21, 2017
TIME Temp Definition
°C
Dew Point Definition
°C
Rel Hum Definition
%
Wind Dir Definition
10's deg

Wind Spd Definition
km/h
Visibility Definition
km
Stn Press Definition
kPa
Hmdx Definition


Wind Chill Definition


Weather Definition


00:00 1.9 -6.0 56 LegendMM LegendMM   101.08     LegendNANA
01:00 1.7 -5.9 57 LegendMM LegendMM   101.02     LegendNANA
02:00 1.8 -5.9 57 LegendMM LegendMM   100.95     LegendNANA
03:00 1.8 -6.0 56 LegendMM LegendMM   100.83     LegendNANA
04:00 1.9 -5.4 59 LegendMM LegendMM   100.71     LegendNANA
05:00 2.0 -4.3 63 LegendMM LegendMM   100.65     LegendNANA
06:00 2.3 -3.4 66 LegendMM LegendMM   100.59     LegendNANA
07:00 2.2 -2.5 71 LegendMM LegendMM   100.46     LegendNANA
08:00 2.3 -2.4 71 LegendMM LegendMM   100.44     LegendNANA
09:00 3.2 -2.0 69 LegendMM LegendMM   100.40     LegendNANA
10:00 3.8 -1.8 67 LegendMM LegendMM   100.29     LegendNANA
11:00 4.1 -1.6 66 LegendMM LegendMM   100.22     LegendNANA
12:00 4.8 -1.4 64 LegendMM LegendMM   100.20     LegendNANA
13:00 6.1 -1.4 59 LegendMM LegendMM   100.10     LegendNANA
14:00 7.6 -1.2 54 LegendMM LegendMM   100.02     LegendNANA
15:00 5.8 -0.2 65 LegendMM LegendMM   100.04     LegendNANA
16:00 4.3 2.8 90 LegendMM LegendMM   99.93     LegendNANA
17:00 4.5 2.5 87 LegendMM LegendMM   100.03     LegendNANA
18:00 5.0 1.5 78 LegendMM LegendMM   100.02     LegendNANA
19:00 4.9 2.3 83 LegendMM LegendMM   99.99     LegendNANA
20:00 5.1 2.4 83 LegendMM LegendMM   100.03     LegendNANA
21:00 5.1 1.5 78 LegendMM LegendMM   100.06     LegendNANA
22:00 4.9 1.9 81 LegendMM LegendMM   100.04     LegendNANA
23:00 4.4 2.2 85 LegendMM LegendMM   100.04     LegendNANA

Notes on Data Quality.

Legend

  • E = Estimated
  • M = Missing
  • NA = Not Available
Date modified: